Regional Weather Roundup
Issued by NWS

Home | Current Version | Previous Version | Graphics & Text | Print | Product List | Glossary On
Versions: 1 2 3 4 5 6 7 8 9 10 11 12 13 14 15 16 17 18 19 20 21 22 23 24 25 26 27 28 29 30 31 32 33 34 35 36 37 38 39 40 41 42 43 44 45 46 47 48 49 50
000
ASUS43 KIND 221959
RWRIN

WEATHER ROUNDUP FOR INDIANA
NATIONAL WEATHER SERVICE INDIANAPOLIS IN
400 PM EDT MON MAY 22 2017

NOTE: "FAIR" INDICATES FEW OR NO CLOUDS BELOW 12,000 FEET WITH NO
SIGNIFICANT WEATHER AND/OR OBSTRUCTIONS TO VISIBILITY.

* - STATION DOES NOT REPORT WEATHER SUCH AS PRECIPITATION OR FOG.

+ - STATION NOT QUALITY CONTROLLED BY THE NATIONAL WEATHER SERVICE.
    USE DATA WITH CAUTION...ESPECIALLY DEWPOINT AND RELATIVE
    HUMIDITY OBSERVATIONS.

INZ001>003-010>013-019-020-222100-
NORTHWEST INDIANA

CITY           SKY/WX    TMP DP  RH WIND       PRES   REMARKS
GARY /AIRPORT/ MOSUNNY   75  36  23 SW14      29.95F
MICHIGAN CITY+ SUNNY     72  46  40 S12G18    29.97F
MONTICELLO +   SUNNY     70  47  42 SW10G22   30.00F
RENSSELAER +   SUNNY     72  36  26 SW12G20   30.00S

$$

LMZ046-743>745-222100-
SOUTHERN LAKE MICHIGAN

STATION/POSITION TIME  TEMP    WIND        PRES    WAVE
                       AIR SEA DIR/SP/G            HT
                 (UTC) (F)     (DEG/KT/KT) (MB)    (FT)
BURNS HARBOR     1940   69     210/ 17/ 21 1014.9F
MICHIGAN CITY    1930   66     230/ 14/ 16   N/A
5NW MICH CITY    1950   61 54  230/  6/  8   N/A     1

$$

INZ004-005-014>016-021>024-222100-
NORTH CENTRAL INDIANA

CITY           SKY/WX    TMP DP  RH WIND       PRES   REMARKS
ELKHART        MOSUNNY   72  46  40 W14G20    29.99F
GOSHEN         SUNNY     69  47  45 W10G18    30.00F
SOUTH BEND     SUNNY     69  48  47 W18       29.99F

$$

INZ006>009-017-018-025>027-222100-
NORTHEAST INDIANA

CITY           SKY/WX    TMP DP  RH WIND       PRES   REMARKS
ANGOLA *+      MOSUNNY   68  61  77 W9        30.00S
FORT WAYNE     MOSUNNY   69  48  47 SW8G21    30.03F
KENDALLVILLE + SUNNY     69  46  42 W8        30.02S

$$

INZ028-029-035-036-043>045-051>053-222100-
WEST CENTRAL INDIANA

CITY           SKY/WX    TMP DP  RH WIND       PRES   REMARKS
CRAWFORDSVL +  MOSUNNY   67  50  53 SW9       30.05F
GREENCASTLE +  SUNNY     70  46  43 S6        30.05F
LAFAYETTE      SUNNY     71  48  43 VRB7      30.01F
TERRE HAUTE    SUNNY     71  47  42 S14       30.04F

$$

INZ030>032-037>040-046>048-054>057-064-065-222100-
CENTRAL INDIANA

CITY           SKY/WX    TMP DP  RH WIND       PRES   REMARKS
CP ATTERBURY + CLOUDY    70  43  37 S5        30.06F
INDIANAPOLIS   PTSUNNY   69  47  45 S9        30.05F
-EAGLE CREEK   SUNNY     70  43  37 CALM      30.04F
KOKOMO +       SUNNY     69  49  48 SW10      30.04F
SHELBYVILLE    SUNNY     70  41  34 VRB5      30.05F

$$

INZ033-034-041-042-049-050-058-059-222100-
EAST CENTRAL INDIANA

CITY           SKY/WX    TMP DP  RH WIND       PRES   REMARKS
MUNCIE         SUNNY     69  44  40 W6        30.05F
RICHMOND +     CLOUDY    66  45  45 SW3       30.08F

$$

INZ060-061-067>069-081>083-085>088-222100-
SOUTHWEST INDIANA

CITY           SKY/WX    TMP DP  RH WIND       PRES   REMARKS
EVANSVILLE     MOSUNNY   73  48  41 SE8       30.05F
HUNTINGBURG *+ MOSUNNY   71  53  52 S8        30.07F

$$

INZ062-063-066-070>080-084-089>092-222100-
SOUTH CENTRAL AND SOUTHEAST INDIANA

CITY           SKY/WX    TMP DP  RH WIND       PRES   REMARKS
BLOOMINGTON    CLOUDY    70  42  36 S5        30.05F
MADISON *+     MOSUNNY   68  43  40 S7        30.10F
SEYMOUR +      MOSUNNY   70  46  43 SE7       30.07F

$$





USA.gov is the U.S. government's official web portal to all federal, state and local government web resources and services.